| time (UTC) | temp F | wind direction | speed MPH | gust MPH | rain 1hr in | rain 24hr in | rain mn in | humidity % | barometer mb |
| 20260906224847 | 75 | 103 | 0.0 | 3.0 | 0.00 | 0.00 | 0.00 | 89 | 1016.6 |
| 20260906224343 | 76 | 99 | 0.0 | 3.0 | 0.00 | 0.00 | 0.00 | 90 | 1016.4 |
| 20260906223840 | 75 | 145 | 0.0 | 2.0 | 0.00 | 0.00 | 0.00 | 90 | 1016.8 |
| 20260906223335 | 75 | 16 | 3.0 | 3.0 | 0.00 | 0.00 | 0.00 | 90 | 1016.7 |
| 20260906222833 | 75 | 282 | 0.0 | 2.0 | 0.00 | 0.00 | 0.00 | 90 | 1016.8 |
| 20260906222333 | 74 | 228 | 2.0 | 4.0 | 0.00 | 0.00 | 0.00 | 91 | 1016.7 |
| 20260906221831 | 74 | 96 | 0.0 | 2.0 | 0.00 | 0.00 | 0.00 | 92 | 1016.8 |
| 20260906221330 | 74 | 110 | 2.0 | 3.0 | 0.00 | 0.00 | 0.00 | 92 | 1016.9 |
| 20260906220826 | 73 | 106 | 0.0 | 3.0 | 0.00 | 0.00 | 0.00 | 93 | 1017.0 |
| 20260906220321 | 72 | 356 | 0.0 | 4.0 | 0.00 | 0.00 | 0.00 | 93 | 1017.0 |
| 20260906215820 | 73 | 290 | 2.0 | 6.0 | 0.00 | 0.00 | 0.00 | 93 | 1017.1 |
| 20260906215315 | 73 | 270 | 0.0 | 3.0 | 0.00 | 0.00 | 0.00 | 94 | 1017.0 |
| 20260906214813 | 72 | 270 | 1.0 | 2.0 | 0.00 | 0.00 | 0.00 | 95 | 1017.0 |
| 20260906214308 | 72 | 32 | 0.0 | 3.0 | 0.00 | 0.00 | 0.00 | 96 | 1016.8 |
| 20260906213806 | 73 | 20 | 4.0 | 4.0 | 0.00 | 0.00 | 0.00 | 96 | 1016.9 |
| 20260906213301 | 71 | 81 | 0.0 | 2.0 | 0.00 | 0.00 | 0.00 | 97 | 1016.8 |
| 20260906212758 | 71 | 106 | 0.0 | 1.0 | 0.00 | 0.00 | 0.00 | 97 | 1017.1 |
| 20260906212254 | 71 | 90 | 0.0 | 2.0 | 0.00 | 0.00 | 0.00 | 97 | 1017.1 |
| 20260906211753 | 71 | 97 | 0.0 | 1.0 | 0.00 | 0.00 | 0.00 | 97 | 1017.2 |
| 20260906211248 | 71 | 12 | 2.0 | 3.0 | 0.00 | 0.00 | 0.00 | 97 | 1016.9 |
| 20260906210744 | 71 | 105 | 0.0 | 0.0 | 0.00 | 0.00 | 0.00 | 98 | 1017.0 |
| 20260906210239 | 71 | 106 | 0.0 | 2.0 | 0.00 | 0.00 | 0.00 | 98 | 1017.0 |
| 20260906205734 | 70 | 109 | 0.0 | 2.0 | 0.00 | 0.00 | 0.00 | 98 | 1017.1 |
| 20260906205230 | 70 | 98 | 0.0 | 2.0 | 0.00 | 0.00 | 0.00 | 98 | 1017.2 |
| 20260906204730 | 69 | 90 | 0.0 | 3.0 | 0.00 | 0.00 | 0.00 | 98 | 1017.0 |
| 20260906204230 | 69 | 261 | 0.0 | 2.0 | 0.00 | 0.00 | 0.00 | 98 | 1017.1 |
| 20260906203729 | 70 | 97 | 0.0 | 3.0 | 0.00 | 0.00 | 0.00 | 98 | 1017.5 |
| 20260906203225 | 70 | 147 | 2.0 | 3.0 | 0.00 | 0.00 | 0.00 | 98 | 1017.4 |
| 20260906202722 | 70 | 150 | 0.0 | 2.0 | 0.00 | 0.00 | 0.00 | 99 | 1017.8 |
| 20260906202221 | 70 | 106 | 0.0 | 1.0 | 0.00 | 0.00 | 0.00 | 99 | 1018.0 |
| 20260906201716 | 70 | 14 | 0.0 | 3.0 | 0.00 | 0.00 | 0.00 | 99 | 1018.0 |
| 20260906201215 | 70 | 180 | 0.0 | 2.0 | 0.00 | 0.00 | 0.00 | 99 | 1018.0 |
| 20260906200711 | 70 | 135 | 0.0 | 2.0 | 0.00 | 0.00 | 0.00 | 99 | 1018.5 |
| 20260906200207 | 70 | 98 | 0.0 | 2.0 | 0.00 | 0.00 | 0.00 | 99 | 1018.3 |
| 20260906195702 | 70 | 90 | 1.0 | 2.0 | 0.00 | 0.00 | 0.00 | 99 | 1018.2 |
| 20260906195158 | 69 | 345 | 0.0 | 0.0 | 0.00 | 0.00 | 0.00 | 99 | 1018.5 |
| 20260906194654 | 69 | 246 | 0.0 | 0.0 | 0.00 | 0.00 | 0.00 | 99 | 1018.6 |
| 20260906194149 | 69 | 60 | 0.0 | 1.0 | 0.00 | 0.00 | 0.00 | 99 | 1018.5 |
| 20260906193644 | 69 | 240 | 1.0 | 2.0 | 0.00 | 0.00 | 0.00 | 99 | 1018.7 |
| 20260906193139 | 70 | 180 | 1.0 | 1.0 | 0.00 | 0.00 | 0.00 | 99 | 1018.4 |
| 20260906192635 | 69 | 145 | 0.0 | 3.0 | 0.00 | 0.00 | 0.00 | 99 | 1018.2 |
| 20260906192134 | 69 | 82 | 0.0 | 2.0 | 0.00 | 0.00 | 0.00 | 99 | 1018.3 |
| 20260906191629 | 69 | 139 | 2.0 | 2.0 | 0.00 | 0.00 | 0.00 | 99 | 1018.9 |
| 20260906191129 | 69 | 82 | 0.0 | 1.0 | 0.00 | 0.00 | 0.00 | 99 | 1018.8 |
| 20260906190628 | 68 | 14 | 0.0 | 2.0 | 0.00 | 0.00 | 0.00 | 99 | 1018.5 |
| 20260906190123 | 68 | 23 | 0.0 | 1.0 | 0.00 | 0.00 | 0.00 | 99 | 1018.7 |
| 20260906185622 | 68 | 16 | 0.0 | 2.0 | 0.00 | 0.00 | 0.00 | 99 | 1018.8 |
| 20260906185121 | 68 | 11 | 2.0 | 2.0 | 0.00 | 0.00 | 0.00 | 99 | 1019.5 |
| 20260906184616 | 68 | 126 | 0.0 | 2.0 | 0.00 | 0.00 | 0.00 | 99 | 1019.5 |
| 20260906184112 | 68 | 0 | 0.0 | 2.0 | 0.00 | 0.00 | 0.00 | 99 | 1019.5 |
| 20260906183608 | 68 | 157 | 0.0 | 2.0 | 0.00 | 0.00 | 0.00 | 99 | 1019.4 |
| 20260906183103 | 68 | 105 | 1.0 | 2.0 | 0.00 | 0.00 | 0.00 | 99 | 1019.3 |
| 20260906182558 | 68 | 148 | 0.0 | 2.0 | 0.00 | 0.00 | 0.00 | 99 | 1019.5 |
| 20260906182054 | 67 | 0 | 0.0 | 2.0 | 0.00 | 0.00 | 0.00 | 99 | 1019.6 |
| 20260906181549 | 67 | 115 | 0.0 | 2.0 | 0.00 | 0.00 | 0.00 | 99 | 1019.6 |
| 20260906181045 | 68 | 180 | 0.0 | 2.0 | 0.00 | 0.00 | 0.00 | 99 | 1020.1 |
| 20260906180545 | 67 | 275 | 0.0 | 3.0 | 0.00 | 0.00 | 0.00 | 99 | 1019.7 |
| 20260906180044 | 67 | 120 | 1.0 | 2.0 | 0.00 | 0.00 | 0.00 | 99 | 1019.5 |
| 20260906175543 | 67 | 90 | 0.0 | 1.0 | 0.00 | 0.00 | 0.00 | 98 | 1020.0 |
| 20260906175038 | 66 | 109 | 0.0 | 2.0 | 0.00 | 0.00 | 0.00 | 98 | 1019.8 |
| 20260906174536 | 66 | 99 | 0.0 | 1.0 | 0.00 | 0.00 | 0.00 | 98 | 1019.7 |
| 20260906174031 | 66 | 26 | 0.0 | 2.0 | 0.00 | 0.00 | 0.00 | 98 | 1019.5 |
| 20260906173527 | 66 | 90 | 0.0 | 2.0 | 0.00 | 0.00 | 0.00 | 97 | 1019.8 |
| 20260906173023 | 66 | 114 | 0.0 | 1.0 | 0.00 | 0.00 | 0.00 | 97 | 1019.7 |
| 20260906172517 | 66 | 289 | 0.0 | 1.0 | 0.00 | 0.00 | 0.00 | 97 | 1020.5 |
| 20260906172012 | 66 | 188 | 0.0 | 3.0 | 0.00 | 0.00 | 0.00 | 97 | 1020.6 |
| 20260906171507 | 66 | 14 | 0.0 | 2.0 | 0.00 | 0.00 | 0.00 | 97 | 1019.8 |
| 20260906171002 | 67 | 39 | 0.0 | 3.0 | 0.00 | 0.00 | 0.00 | 97 | 1019.5 |
| 20260906170458 | 67 | 45 | 0.0 | 3.0 | 0.00 | 0.00 | 0.00 | 96 | 1019.5 |
| 20260906165955 | 67 | 99 | 0.0 | 3.0 | 0.00 | 0.00 | 0.00 | 96 | 1018.9 |
| 20260906165454 | 67 | 90 | 0.0 | 2.0 | 0.00 | 0.00 | 0.00 | 96 | 1018.7 |
| 20260906164949 | 68 | 139 | 2.0 | 3.0 | 0.00 | 0.00 | 0.00 | 95 | 1019.2 |
| 20260906164448 | 68 | 186 | 0.0 | 2.0 | 0.00 | 0.00 | 0.00 | 95 | 1019.3 |
| 20260906163945 | 68 | 117 | 2.0 | 2.0 | 0.00 | 0.00 | 0.00 | 94 | 1019.1 |
| 20260906163440 | 68 | 346 | 1.0 | 2.0 | 0.00 | 0.00 | 0.00 | 94 | 1019.3 |
| 20260906162938 | 68 | 354 | 0.0 | 1.0 | 0.00 | 0.00 | 0.00 | 93 | 1019.3 |
| 20260906162431 | 68 | 248 | 0.0 | 3.0 | 0.00 | 0.00 | 0.00 | 92 | 1019.6 |
| 20260906161927 | 69 | 312 | 2.0 | 2.0 | 0.00 | 0.00 | 0.00 | 91 | 1019.3 |
| 20260906161426 | 69 | 328 | 0.0 | 5.0 | 0.00 | 0.00 | 0.00 | 90 | 1019.1 |
| 20260906160925 | 69 | 230 | 0.0 | 3.0 | 0.00 | 0.00 | 0.00 | 89 | 1019.1 |
| 20260906160418 | 69 | 288 | 2.0 | 3.0 | 0.00 | 0.00 | 0.00 | 88 | 1018.8 |
| 20260906155916 | 69 | 337 | 0.0 | 3.0 | 0.00 | 0.00 | 0.00 | 87 | 1018.6 |
| 20260906155405 | 70 | 286 | 0.0 | 2.0 | 0.00 | 0.00 | 0.00 | 85 | 1018.6 |
| 20260906154901 | 70 | 278 | 1.0 | 2.0 | 0.00 | 0.00 | 0.00 | 84 | 1018.1 |
| 20260906154355 | 70 | 253 | 2.0 | 2.0 | 0.00 | 0.00 | 0.00 | 84 | 1018.0 |
| 20260906153853 | 70 | 278 | 1.0 | 3.0 | 0.00 | 0.00 | 0.00 | 84 | 1017.8 |
| 20260906153347 | 70 | 200 | 0.0 | 1.0 | 0.00 | 0.00 | 0.00 | 84 | 1017.7 |
| 20260906152842 | 70 | 264 | 0.0 | 1.0 | 0.00 | 0.00 | 0.00 | 84 | 1017.8 |
| 20260906152337 | 70 | 195 | 0.0 | 2.0 | 0.00 | 0.00 | 0.00 | 84 | 1017.9 |
| 20260906151837 | 70 | 186 | 0.0 | 2.0 | 0.00 | 0.00 | 0.00 | 84 | 1017.8 |
| 20260906151332 | 69 | 90 | 0.0 | 0.0 | 0.00 | 0.00 | 0.00 | 84 | 1017.5 |
| 20260906150828 | 69 | 90 | 0.0 | 0.0 | 0.00 | 0.00 | 0.00 | 85 | 1017.2 |
| 20260906150323 | 69 | 90 | 0.0 | 1.0 | 0.00 | 0.00 | 0.00 | 84 | 1017.1 |
| 20260906145822 | 69 | 276 | 0.0 | 3.0 | 0.00 | 0.00 | 0.00 | 85 | 1017.2 |
| 20260906145321 | 69 | 9 | 0.0 | 2.0 | 0.00 | 0.00 | 0.00 | 84 | 1017.2 |
| 20260906144816 | 69 | 145 | 0.0 | 2.0 | 0.00 | 0.00 | 0.00 | 85 | 1017.2 |
| 20260906144311 | 69 | 114 | 0.0 | 1.0 | 0.00 | 0.00 | 0.00 | 84 | 1017.4 |
| 20260906143811 | 70 | 312 | 0.0 | 2.0 | 0.00 | 0.00 | 0.00 | 83 | 1017.6 |
| 20260906143308 | 69 | 8 | 0.0 | 3.0 | 0.00 | 0.00 | 0.00 | 82 | 1017.6 |
| 20260906142802 | 70 | 257 | 0.0 | 0.0 | 0.00 | 0.00 | 0.00 | 82 | 1017.7 |
| 20260906142257 | 70 | 23 | 0.0 | 1.0 | 0.00 | 0.00 | 0.00 | 81 | 1018.0 |
| 20260906141756 | 69 | 0 | 0.0 | 3.0 | 0.00 | 0.00 | 0.00 | 80 | 1017.5 |
| 20260906141251 | 69 | 40 | 0.0 | 2.0 | 0.00 | 0.00 | 0.00 | 81 | 1017.6 |
| 20260906140750 | 69 | 98 | 0.0 | 3.0 | 0.00 | 0.00 | 0.00 | 82 | 1017.2 |
| 20260906140245 | 69 | 8 | 0.0 | 2.0 | 0.00 | 0.00 | 0.00 | 82 | 1017.1 |
| 20260906135743 | 69 | 48 | 2.0 | 4.0 | 0.00 | 0.00 | 0.00 | 81 | 1017.2 |
| 20260906135238 | 69 | 103 | 2.0 | 3.0 | 0.00 | 0.00 | 0.00 | 80 | 1017.4 |
| 20260906134733 | 70 | 90 | 0.0 | 3.0 | 0.00 | 0.00 | 0.00 | 79 | 1017.4 |
| 20260906134229 | 70 | 106 | 0.0 | 2.0 | 0.00 | 0.00 | 0.00 | 78 | 1017.6 |
| 20260906133724 | 71 | 278 | 0.0 | 5.0 | 0.00 | 0.00 | 0.00 | 76 | 1017.9 |
| 20260906133220 | 71 | 114 | 0.0 | 3.0 | 0.00 | 0.00 | 0.00 | 76 | 1017.8 |
| 20260906132715 | 72 | 90 | 0.0 | 2.0 | 0.00 | 0.00 | 0.00 | 76 | 1017.6 |
| 20260906132210 | 72 | 291 | 0.0 | 3.0 | 0.00 | 0.00 | 0.00 | 78 | 1017.4 |
| 20260906131706 | 73 | 0 | 2.0 | 3.0 | 0.00 | 0.00 | 0.00 | 79 | 1017.3 |
| 20260906131201 | 72 | 240 | 0.0 | 3.0 | 0.00 | 0.00 | 0.00 | 79 | 1017.3 |
| 20260906130656 | 72 | 353 | 0.0 | 1.0 | 0.00 | 0.00 | 0.00 | 78 | 1017.3 |
| 20260906130151 | 72 | 40 | 0.0 | 2.0 | 0.00 | 0.00 | 0.00 | 78 | 1017.4 |
| 20260906125643 | 72 | 97 | 0.0 | 2.0 | 0.00 | 0.00 | 0.00 | 77 | 1017.1 |
| 20260906125142 | 72 | 0 | 0.0 | 3.0 | 0.00 | 0.00 | 0.00 | 80 | 1017.3 |
| 20260906124638 | 73 | 355 | 0.0 | 2.0 | 0.00 | 0.00 | 0.00 | 86 | 1017.3 |
| 20260906124133 | 73 | 229 | 0.0 | 0.0 | 0.00 | 0.00 | 0.00 | 85 | 1017.2 |
| 20260906123632 | 72 | 90 | 0.0 | 1.0 | 0.00 | 0.00 | 0.00 | 86 | 1016.6 |
| 20260906123127 | 72 | 264 | 1.0 | 3.0 | 0.00 | 0.00 | 0.00 | 86 | 1016.4 |
| 20260906122626 | 72 | 90 | 0.0 | 1.0 | 0.00 | 0.00 | 0.00 | 89 | 1016.5 |
| 20260906122122 | 71 | 11 | 0.0 | 2.0 | 0.00 | 0.00 | 0.00 | 90 | 1016.7 |
| 20260906121618 | 69 | 262 | 1.0 | 2.0 | 0.00 | 0.00 | 0.00 | 93 | 1016.8 |
| 20260906121114 | 68 | 99 | 0.0 | 0.0 | 0.00 | 0.00 | 0.00 | 95 | 1016.4 |
| 20260906120610 | 68 | 29 | 0.0 | 1.0 | 0.00 | 0.00 | 0.00 | 97 | 1016.2 |
| 20260906120107 | 68 | 69 | 0.0 | 0.0 | 0.00 | 0.00 | 0.00 | 97 | 1016.0 |
| 20260906115606 | 69 | 69 | 0.0 | 1.0 | 0.00 | 0.00 | 0.00 | 97 | 1015.8 |
| 20260906115101 | 69 | 111 | 0.0 | 0.0 | 0.00 | 0.00 | 0.00 | 97 | 1015.9 |
| 20260906114556 | 69 | 82 | 0.0 | 1.0 | 0.00 | 0.00 | 0.00 | 97 | 1015.9 |
| 20260906114051 | 69 | 75 | 0.0 | 0.0 | 0.00 | 0.00 | 0.00 | 97 | 1015.8 |
| 20260906113550 | 69 | 75 | 0.0 | 0.0 | 0.00 | 0.00 | 0.00 | 96 | 1015.8 |
| 20260906113045 | 68 | 75 | 0.0 | 0.0 | 0.00 | 0.00 | 0.00 | 96 | 1015.8 |
| 20260906112540 | 69 | 75 | 0.0 | 0.0 | 0.00 | 0.00 | 0.00 | 96 | 1015.6 |
| 20260906112037 | 69 | 75 | 0.0 | 0.0 | 0.00 | 0.00 | 0.00 | 95 | 1015.9 |
| 20260906111536 | 69 | 75 | 0.0 | 0.0 | 0.00 | 0.00 | 0.00 | 95 | 1015.9 |
| 20260906111032 | 69 | 75 | 0.0 | 0.0 | 0.00 | 0.00 | 0.00 | 94 | 1016.2 |
| 20260906110532 | 69 | 90 | 0.0 | 0.0 | 0.00 | 0.00 | 0.00 | 93 | 1016.1 |
| 20260906110031 | 69 | 270 | 0.0 | 0.0 | 0.00 | 0.00 | 0.00 | 92 | 1016.1 |
| 20260906105526 | 69 | 270 | 0.0 | 0.0 | 0.00 | 0.00 | 0.00 | 91 | 1016.0 |
| 20260906105022 | 70 | 270 | 0.0 | 0.0 | 0.00 | 0.00 | 0.00 | 89 | 1016.2 |
| 20260906104520 | 71 | 270 | 0.0 | 0.0 | 0.00 | 0.00 | 0.00 | 87 | 1015.8 |
| 20260906104015 | 71 | 270 | 0.0 | 0.0 | 0.00 | 0.00 | 0.00 | 83 | 1016.2 |
| 20260906103513 | 72 | 270 | 0.0 | 0.0 | 0.00 | 0.00 | 0.00 | 82 | 1015.9 |
| 20260906103009 | 74 | 270 | 0.0 | 0.0 | 0.00 | 0.00 | 0.00 | 79 | 1016.1 |
| 20260906102508 | 74 | 270 | 0.0 | 0.0 | 0.00 | 0.00 | 0.00 | 76 | 1016.1 |
| 20260906102003 | 73 | 285 | 0.0 | 0.0 | 0.00 | 0.00 | 0.00 | 75 | 1016.1 |
| 20260906101457 | 73 | 285 | 0.0 | 0.0 | 0.00 | 0.00 | 0.00 | 76 | 1016.1 |
| 20260906100952 | 73 | 285 | 0.0 | 0.0 | 0.00 | 0.00 | 0.00 | 76 | 1015.9 |
| 20260906100448 | 73 | 285 | 0.0 | 0.0 | 0.00 | 0.00 | 0.00 | 76 | 1016.2 |
| 20260906095942 | 73 | 285 | 0.0 | 0.0 | 0.00 | 0.00 | 0.00 | 75 | 1016.3 |
| 20260906095437 | 73 | 285 | 0.0 | 0.0 | 0.00 | 0.00 | 0.00 | 74 | 1015.8 |
| 20260906094932 | 74 | 285 | 0.0 | 0.0 | 0.00 | 0.00 | 0.00 | 75 | 1016.2 |
| 20260906094426 | 74 | 285 | 0.0 | 0.0 | 0.00 | 0.00 | 0.00 | 74 | 1016.1 |
| 20260906093922 | 73 | 285 | 0.0 | 0.0 | 0.00 | 0.00 | 0.00 | 74 | 1016.2 |
| 20260906093418 | 73 | 285 | 0.0 | 0.0 | 0.00 | 0.00 | 0.00 | 75 | 1016.2 |
| 20260906092913 | 73 | 285 | 0.0 | 0.0 | 0.00 | 0.00 | 0.00 | 75 | 1016.0 |
| 20260906092413 | 73 | 285 | 0.0 | 0.0 | 0.00 | 0.00 | 0.00 | 75 | 1016.1 |
| 20260906091908 | 73 | 285 | 0.0 | 0.0 | 0.00 | 0.00 | 0.00 | 74 | 1015.8 |
| 20260906091404 | 73 | 285 | 0.0 | 0.0 | 0.00 | 0.00 | 0.00 | 74 | 1016.0 |
| 20260906090901 | 73 | 285 | 0.0 | 0.0 | 0.00 | 0.00 | 0.00 | 74 | 1016.1 |
| 20260906090400 | 73 | 285 | 0.0 | 0.0 | 0.00 | 0.00 | 0.00 | 74 | 1016.1 |
| 20260906085854 | 73 | 285 | 0.0 | 0.0 | 0.00 | 0.00 | 0.00 | 74 | 1016.2 |
| 20260906085348 | 73 | 172 | 0.0 | 0.0 | 0.00 | 0.00 | 0.00 | 74 | 1016.1 |
| 20260906084842 | 73 | 172 | 0.0 | 0.0 | 0.00 | 0.00 | 0.00 | 74 | 1016.3 |
| 20260906084342 | 73 | 172 | 0.0 | 0.0 | 0.00 | 0.00 | 0.00 | 74 | 1016.4 |
| 20260906083837 | 73 | 172 | 0.0 | 0.0 | 0.00 | 0.00 | 0.00 | 74 | 1016.4 |
| 20260906083332 | 73 | 270 | 0.0 | 0.0 | 0.00 | 0.00 | 0.00 | 73 | 1016.4 |
| 20260906082826 | 73 | 270 | 0.0 | 0.0 | 0.00 | 0.00 | 0.00 | 74 | 1016.4 |
| 20260906082321 | 72 | 270 | 0.0 | 0.0 | 0.00 | 0.00 | 0.00 | 73 | 1016.5 |
| 20260906081817 | 73 | 270 | 0.0 | 0.0 | 0.00 | 0.00 | 0.00 | 73 | 1016.4 |
| 20260906081313 | 73 | 270 | 0.0 | 0.0 | 0.00 | 0.00 | 0.00 | 73 | 1016.5 |
| 20260906080809 | 73 | 270 | 0.0 | 0.0 | 0.00 | 0.00 | 0.00 | 73 | 1016.4 |
| 20260906080305 | 72 | 270 | 0.0 | 0.0 | 0.00 | 0.00 | 0.00 | 72 | 1016.3 |
| 20260906075805 | 73 | 270 | 0.0 | 0.0 | 0.00 | 0.00 | 0.00 | 72 | 1016.3 |
| 20260906075306 | 73 | 270 | 0.0 | 0.0 | 0.00 | 0.00 | 0.00 | 72 | 1016.4 |
| 20260906074800 | 73 | 270 | 0.0 | 0.0 | 0.00 | 0.00 | 0.00 | 72 | 1016.5 |
| 20260906074259 | 73 | 270 | 0.0 | 0.0 | 0.00 | 0.00 | 0.00 | 70 | 1016.4 |
| 20260906073758 | 73 | 270 | 0.0 | 0.0 | 0.00 | 0.00 | 0.00 | 70 | 1016.5 |
| 20260906073253 | 73 | 270 | 0.0 | 0.0 | 0.00 | 0.00 | 0.00 | 70 | 1016.3 |
| 20260906072749 | 73 | 270 | 0.0 | 0.0 | 0.00 | 0.00 | 0.00 | 70 | 1016.4 |
| 20260906072245 | 73 | 270 | 0.0 | 0.0 | 0.00 | 0.00 | 0.00 | 68 | 1016.5 |
| 20260906071741 | 73 | 270 | 0.0 | 0.0 | 0.00 | 0.00 | 0.00 | 68 | 1016.6 |
| 20260906071240 | 74 | 270 | 0.0 | 0.0 | 0.00 | 0.00 | 0.00 | 68 | 1016.4 |
| 20260906070737 | 74 | 270 | 0.0 | 0.0 | 0.00 | 0.00 | 0.00 | 68 | 1016.4 |
| 20260906070233 | 74 | 270 | 0.0 | 0.0 | 0.00 | 0.00 | 0.00 | 67 | 1016.5 |
| 20260906065732 | 75 | 270 | 0.0 | 0.0 | 0.00 | 0.00 | 0.00 | 66 | 1016.4 |
| 20260906065228 | 75 | 270 | 0.0 | 0.0 | 0.00 | 0.00 | 0.00 | 65 | 1016.3 |
| 20260906064723 | 75 | 270 | 0.0 | 1.0 | 0.00 | 0.00 | 0.00 | 64 | 1016.2 |
| 20260906064218 | 75 | 337 | 1.0 | 3.0 | 0.00 | 0.00 | 0.00 | 66 | 1016.4 |
| 20260906063713 | 75 | 345 | 0.0 | 1.0 | 0.00 | 0.00 | 0.00 | 66 | 1016.2 |
| 20260906063209 | 75 | 294 | 0.0 | 0.0 | 0.00 | 0.00 | 0.00 | 65 | 1016.4 |
| 20260906062705 | 75 | 281 | 0.0 | 2.0 | 0.00 | 0.00 | 0.00 | 65 | 1016.1 |
| 20260906062204 | 75 | 279 | 0.0 | 0.0 | 0.00 | 0.00 | 0.00 | 64 | 1016.5 |
| 20260906061659 | 75 | 279 | 0.0 | 0.0 | 0.00 | 0.00 | 0.00 | 63 | 1016.6 |
| 20260906061155 | 75 | 279 | 0.0 | 0.0 | 0.00 | 0.00 | 0.00 | 63 | 1016.4 |
| 20260906060651 | 75 | 279 | 0.0 | 0.0 | 0.00 | 0.00 | 0.00 | 63 | 1016.4 |
| 20260906060148 | 75 | 279 | 0.0 | 0.0 | 0.00 | 0.00 | 0.00 | 62 | 1016.3 |
| 20260906055643 | 75 | 279 | 0.0 | 0.0 | 0.00 | 0.00 | 0.00 | 62 | 1016.5 |
| 20260906055138 | 75 | 270 | 0.0 | 2.0 | 0.00 | 0.00 | 0.00 | 63 | 1016.7 |
| 20260906054634 | 75 | 270 | 0.0 | 2.0 | 0.00 | 0.00 | 0.00 | 63 | 1016.5 |
| 20260906054129 | 75 | 8 | 0.0 | 0.0 | 0.00 | 0.00 | 0.00 | 64 | 1016.6 |
| 20260906053625 | 75 | 270 | 0.0 | 2.0 | 0.00 | 0.00 | 0.00 | 64 | 1016.6 |
| 20260906053120 | 76 | 255 | 1.0 | 3.0 | 0.00 | 0.00 | 0.00 | 65 | 1016.9 |
| 20260906052616 | 76 | 251 | 1.0 | 3.0 | 0.00 | 0.00 | 0.00 | 65 | 1016.6 |
| 20260906052112 | 76 | 246 | 3.0 | 3.0 | 0.00 | 0.00 | 0.00 | 64 | 1016.9 |
| 20260906051608 | 76 | 262 | 0.0 | 3.0 | 0.00 | 0.00 | 0.00 | 64 | 1016.7 |
| 20260906051103 | 76 | 279 | 0.0 | 3.0 | 0.00 | 0.00 | 0.00 | 63 | 1016.8 |
| 20260906050558 | 76 | 254 | 0.0 | 1.0 | 0.00 | 0.00 | 0.00 | 61 | 1016.7 |
| 20260906050054 | 77 | 331 | 0.0 | 2.0 | 0.00 | 0.00 | 0.00 | 61 | 1016.8 |
| 20260906045551 | 77 | 289 | 0.0 | 2.0 | 0.00 | 0.00 | 0.00 | 62 | 1016.8 |
| 20260906045047 | 77 | 334 | 0.0 | 3.0 | 0.00 | 0.00 | 0.00 | 61 | 1016.7 |
| 20260906044542 | 77 | 250 | 0.0 | 3.0 | 0.00 | 0.00 | 0.00 | 61 | 1016.6 |
| 20260906044038 | 77 | 292 | 2.0 | 3.0 | 0.00 | 0.00 | 0.00 | 62 | 1016.8 |
| 20260906043528 | 77 | 276 | 2.0 | 3.0 | 0.00 | 0.00 | 0.00 | 62 | 1016.6 |
| 20260906043024 | 77 | 291 | 1.0 | 2.0 | 0.00 | 0.00 | 0.00 | 61 | 1016.5 |
| 20260906042522 | 77 | 246 | 0.0 | 3.0 | 0.00 | 0.00 | 0.00 | 60 | 1016.5 |
| 20260906042018 | 77 | 264 | 0.0 | 2.0 | 0.00 | 0.00 | 0.00 | 57 | 1016.7 |
| 20260906041514 | 77 | 270 | 0.0 | 2.0 | 0.00 | 0.00 | 0.00 | 56 | 1016.6 |
| 20260906041014 | 77 | 270 | 1.0 | 3.0 | 0.00 | 0.00 | 0.00 | 55 | 1016.6 |
| 20260906040509 | 77 | 254 | 0.0 | 3.0 | 0.00 | 0.00 | 0.00 | 53 | 1016.5 |
| 20260906040004 | 77 | 263 | 0.0 | 2.0 | 0.00 | 0.00 | 0.00 | 52 | 1016.5 |
| 20260906035459 | 77 | 254 | 1.0 | 2.0 | 0.00 | 0.00 | 0.00 | 53 | 1016.4 |
| 20260906034954 | 78 | 254 | 0.0 | 3.0 | 0.00 | 0.00 | 0.00 | 56 | 1016.4 |
| 20260906034448 | 78 | 258 | 0.0 | 3.0 | 0.00 | 0.00 | 0.00 | 55 | 1016.3 |
| 20260906033944 | 78 | 279 | 1.0 | 3.0 | 0.00 | 0.00 | 0.00 | 53 | 1016.6 |
| 20260906033438 | 78 | 286 | 1.0 | 2.0 | 0.00 | 0.00 | 0.00 | 54 | 1016.2 |
| 20260906032934 | 78 | 279 | 0.0 | 1.0 | 0.00 | 0.00 | 0.00 | 57 | 1016.2 |
| 20260906032430 | 78 | 276 | 0.0 | 2.0 | 0.00 | 0.00 | 0.00 | 57 | 1016.1 |
| 20260906031924 | 78 | 270 | 0.0 | 2.0 | 0.00 | 0.00 | 0.00 | 57 | 1016.2 |
| 20260906031420 | 78 | 270 | 0.0 | 2.0 | 0.00 | 0.00 | 0.00 | 57 | 1016.1 |
| 20260906030916 | 78 | 277 | 0.0 | 1.0 | 0.00 | 0.00 | 0.00 | 60 | 1015.9 |
| 20260906030410 | 78 | 0 | 0.0 | 2.0 | 0.00 | 0.00 | 0.00 | 61 | 1016.0 |
| 20260906025904 | 78 | 292 | 0.0 | 3.0 | 0.00 | 0.00 | 0.00 | 61 | 1015.8 |
| 20260906025359 | 78 | 278 | 0.0 | 3.0 | 0.00 | 0.00 | 0.00 | 61 | 1016.1 |
| 20260906024858 | 79 | 276 | 2.0 | 2.0 | 0.00 | 0.00 | 0.00 | 60 | 1016.0 |
| 20260906024357 | 79 | 278 | 1.0 | 3.0 | 0.00 | 0.00 | 0.00 | 59 | 1015.9 |
| 20260906023852 | 79 | 326 | 0.0 | 3.0 | 0.00 | 0.00 | 0.00 | 58 | 1015.7 |
| 20260906023349 | 79 | 264 | 0.0 | 2.0 | 0.00 | 0.00 | 0.00 | 59 | 1016.0 |
| 20260906022849 | 79 | 325 | 0.0 | 4.0 | 0.00 | 0.00 | 0.00 | 58 | 1015.9 |
| 20260906022343 | 80 | 285 | 0.0 | 2.0 | 0.00 | 0.00 | 0.00 | 58 | 1016.0 |
| 20260906021840 | 80 | 347 | 3.0 | 4.0 | 0.00 | 0.00 | 0.00 | 58 | 1016.0 |
| 20260906021339 | 80 | 340 | 0.0 | 5.0 | 0.00 | 0.00 | 0.00 | 60 | 1015.9 |
| 20260906020834 | 81 | 349 | 5.0 | 5.0 | 0.00 | 0.00 | 0.00 | 58 | 1016.0 |
| 20260906020333 | 81 | 265 | 2.0 | 5.0 | 0.00 | 0.00 | 0.00 | 57 | 1015.9 |
| 20260906015828 | 81 | 226 | 4.0 | 4.0 | 0.00 | 0.00 | 0.00 | 57 | 1016.0 |
| 20260906015327 | 81 | 307 | 0.0 | 4.0 | 0.00 | 0.00 | 0.00 | 58 | 1015.8 |
| 20260906014827 | 82 | 241 | 3.0 | 5.0 | 0.00 | 0.00 | 0.00 | 58 | 1015.8 |
| 20260906014322 | 82 | 240 | 2.0 | 5.0 | 0.00 | 0.00 | 0.00 | 53 | 1015.9 |
| 20260906013818 | 82 | 18 | 3.0 | 5.0 | 0.00 | 0.00 | 0.00 | 53 | 1015.9 |
| 20260906013313 | 83 | 227 | 3.0 | 5.0 | 0.00 | 0.00 | 0.00 | 53 | 1015.8 |
| 20260906012809 | 84 | 299 | 3.0 | 6.0 | 0.00 | 0.00 | 0.00 | 52 | 1015.9 |
| 20260906012309 | 84 | 201 | 0.0 | 4.0 | 0.00 | 0.00 | 0.00 | 52 | 1015.9 |
| 20260906011803 | 86 | 248 | 0.0 | 3.0 | 0.00 | 0.00 | 0.00 | 48 | 1015.7 |
| 20260906011258 | 85 | 243 | 3.0 | 7.0 | 0.00 | 0.00 | 0.00 | 49 | 1015.6 |
| 20260906010754 | 86 | 304 | 3.0 | 4.0 | 0.00 | 0.00 | 0.00 | 47 | 1015.5 |
| 20260906010250 | 86 | 262 | 0.0 | 2.0 | 0.00 | 0.00 | 0.00 | 35 | 1015.6 |
| 20260906005745 | 86 | 206 | 2.0 | 3.0 | 0.00 | 0.00 | 0.00 | 34 | 1015.6 |
| 20260906005244 | 87 | 200 | 0.0 | 3.0 | 0.00 | 0.00 | 0.00 | 33 | 1015.9 |
| 20260906004743 | 87 | 227 | 3.0 | 3.0 | 0.00 | 0.00 | 0.00 | 33 | 1015.9 |
| 20260906004238 | 87 | 198 | 0.0 | 2.0 | 0.00 | 0.00 | 0.00 | 35 | 1015.7 |
| 20260906003733 | 88 | 162 | 0.0 | 3.0 | 0.00 | 0.00 | 0.00 | 33 | 1015.7 |
| 20260906003228 | 88 | 255 | 0.0 | 3.0 | 0.00 | 0.00 | 0.00 | 33 | 1015.4 |
| 20260906002723 | 88 | 201 | 3.0 | 3.0 | 0.00 | 0.00 | 0.00 | 32 | 1015.6 |
| 20260906002218 | 88 | 198 | 2.0 | 3.0 | 0.00 | 0.00 | 0.00 | 34 | 1015.5 |
| 20260906001713 | 87 | 82 | 1.0 | 3.0 | 0.00 | 0.00 | 0.00 | 34 | 1015.5 |
| 20260906001214 | 88 | 228 | 2.0 | 2.0 | 0.00 | 0.00 | 0.00 | 32 | 1015.5 |
| 20260906000709 | 88 | 225 | 0.0 | 2.0 | 0.00 | 0.00 | 0.00 | 31 | 1015.6 |
| 20260906000204 | 88 | 157 | 1.0 | 3.0 | 0.00 | 0.00 | 0.00 | 31 | 1015.7 |
| 20260905235703 | 88 | 200 | 1.0 | 3.0 | 0.00 | 0.00 | 0.00 | 30 | 1015.5 |
| 20260905235158 | 88 | 162 | 2.0 | 3.0 | 0.00 | 0.00 | 0.00 | 28 | 1015.6 |
| 20260905234654 | 89 | 196 | 2.0 | 4.0 | 0.00 | 0.00 | 0.00 | 26 | 1015.8 |
| 20260905234149 | 89 | 209 | 2.0 | 2.0 | 0.00 | 0.00 | 0.00 | 27 | 1015.5 |
| 20260905233644 | 89 | 169 | 0.0 | 4.0 | 0.00 | 0.00 | 0.00 | 27 | 1015.5 |
| 20260905233143 | 89 | 251 | 0.0 | 4.0 | 0.00 | 0.00 | 0.00 | 27 | 1015.6 |
| 20260905232638 | 89 | 292 | 2.0 | 2.0 | 0.00 | 0.00 | 0.00 | 27 | 1015.5 |
| 20260905232134 | 89 | 265 | 2.0 | 3.0 | 0.00 | 0.00 | 0.00 | 26 | 1015.6 |
| 20260905231629 | 91 | 0 | 0.0 | 2.0 | 0.00 | 0.00 | 0.00 | 26 | 1015.5 |
| 20260905231126 | 88 | 191 | 0.0 | 4.0 | 0.00 | 0.00 | 0.00 | 26 | 1015.5 |
| 20260905230621 | 90 | 203 | 0.0 | 3.0 | 0.00 | 0.00 | 0.00 | 26 | 1015.5 |
| 20260905230118 | 93 | 236 | 2.0 | 3.0 | 0.00 | 0.00 | 0.00 | 25 | 1015.5 |
| 20260905225612 | 89 | 74 | 0.0 | 1.0 | 0.00 | 0.00 | 0.00 | 27 | 1015.6 |